GW6707 Weather Reports


Display with metric or nautical units.
time (UTC)temp
F
wind
direction
speed
MPH
gust
MPH
rain 1hr
in
rain 24hr
in
rain mn
in
humidity
%
barometer
mb
20260503034517 57 308 0.0 2.0 0.00 0.00 0.00 56 1021.3
20260503033027 57 325 0.0 2.0 0.00 0.00 0.00 56 1021.4
20260503031534 58 316 0.0 1.0 0.00 0.00 0.00 57 1021.3
20260503030030 58 316 0.0 1.0 0.00 0.00 0.00 56 1021.4
20260503024515 58 316 0.0 2.0 0.00 0.00 0.00 55 1021.5
20260503023038 58 316 0.0 2.0 0.00 0.00 0.00 55 1021.6
20260503021524 58 301 0.0 2.0 0.00 0.00 0.00 56 1021.7
20260503020028 58 273 0.0 2.0 0.00 0.00 0.00 55 1021.7
20260503014530 58 273 0.0 1.0 0.00 0.00 0.00 55 1021.8
20260503013016 58 271 0.0 2.0 0.00 0.00 0.00 54 1021.8
20260503011522 58 309 0.0 0.0 0.00 0.00 0.00 53 1021.9
20260503010031 58 309 0.0 0.0 0.00 0.00 0.00 50 1022.0
20260503004528 59 309 0.0 0.0 0.00 0.00 0.00 49 1022.2
20260503003030 59 309 0.0 2.0 0.00 0.00 0.00 48 1022.3
20260503001520 59 309 0.0 0.0 0.00 0.00 0.00 48 1022.5
20260503000026 59 309 0.0 2.0 0.00 0.00 0.00 49 1022.6
20260502234525 59 312 0.0 2.0 0.00 0.00 0.00 48 1022.8
20260502233028 59 312 0.0 2.0 0.00 0.00 0.00 48 1022.9
20260502231531 59 312 0.0 0.0 0.00 0.00 0.00 47 1023.0
20260502230023 60 312 0.0 0.0 0.00 0.00 0.00 46 1023.0
20260502224527 60 312 0.0 2.0 0.00 0.00 0.00 46 1023.1
20260502223028 60 312 0.0 0.0 0.00 0.00 0.00 46 1023.2
20260502221527 60 312 0.0 2.0 0.00 0.00 0.00 46 1023.2
20260502220032 60 319 0.0 2.0 0.00 0.00 0.00 47 1023.3
20260502214524 60 319 0.0 2.0 0.00 0.00 0.00 47 1023.2
20260502213031 61 321 0.0 1.0 0.00 0.00 0.00 47 1023.3
20260502211530 61 321 0.0 1.0 0.00 0.00 0.00 47 1023.4
20260502210030 61 321 0.0 2.0 0.00 0.00 0.00 47 1023.4
20260502204527 62 351 0.0 3.0 0.00 0.00 0.00 46 1023.5
20260502203024 62 326 2.0 3.0 0.00 0.00 0.00 46 1023.5
20260502201511 62 321 0.0 2.0 0.00 0.00 0.00 46 1023.4
20260502200014 62 360 0.0 3.0 0.00 0.00 0.00 47 1023.4
20260502194520 62 331 0.0 3.0 0.00 0.00 0.00 47 1023.3
20260502193025 62 309 0.0 2.0 0.00 0.00 0.00 46 1023.2
20260502191515 62 315 1.0 2.0 0.00 0.00 0.00 46 1023.2
20260502190012 62 315 0.0 2.0 0.00 0.00 0.00 47 1023.1
20260502184527 62 319 1.0 3.0 0.00 0.00 0.00 47 1023.2
20260502183024 62 321 1.0 4.0 0.00 0.00 0.00 48 1023.1
20260502181525 63 304 3.0 4.0 0.00 0.00 0.00 48 1023.0
20260502163024 68 172 2.0 3.0 0.00 0.00 0.00 41 1023.0
20260502161525 67 133 0.0 4.0 0.00 0.00 0.00 42 1023.2
20260502151535 68 171 1.0 4.0 0.00 0.00 0.00 41 1023.6
20260502123038 66 154 1.0 6.0 0.00 0.00 0.00 45 1025.6
20260502121530 65 130 3.0 7.0 0.00 0.00 0.00 44 1025.8
20260502114506 65 163 2.0 5.0 0.00 0.00 0.00 43 1026.2
20260502113010 65 199 0.0 4.0 0.00 0.00 0.00 45 1026.3
20260502111514 64 151 3.0 6.0 0.00 0.00 0.00 43 1026.5
20260502110026 64 118 3.0 6.0 0.00 0.00 0.00 43 1026.7
20260502104525 63 160 3.0 8.0 0.00 0.00 0.00 42 1027.1
20260502103007 62 304 3.0 6.0 0.00 0.00 0.00 43 1027.2
20260502101512 62 329 2.0 8.0 0.00 0.00 0.00 43 1027.5
20260502091509 62 11 1.0 5.0 0.00 0.00 0.00 49 1027.9
20260502071526 59 129 2.0 4.0 0.00 0.00 0.00 53 1028.1
20260502070013 58 139 1.0 2.0 0.00 0.00 0.00 54 1028.2
20260502064520 57 160 1.0 3.0 0.00 0.00 0.00 58 1028.2
20260502063024 58 144 1.0 3.0 0.00 0.00 0.00 54 1028.2
20260502061527 57 140 1.0 4.0 0.00 0.00 0.00 56 1028.1
20260502060026 56 143 1.0 2.0 0.00 0.00 0.00 56 1028.1
20260502054516 56 144 1.0 2.0 0.00 0.00 0.00 54 1028.1
20260502053022 54 153 1.0 2.0 0.00 0.00 0.00 58 1028.1
20260502051527 53 296 0.0 2.0 0.00 0.00 0.00 59 1028.0
20260502050029 52 296 0.0 2.0 0.00 0.00 0.00 61 1028.0
20260502044529 52 296 0.0 2.0 0.00 0.00 0.00 59 1028.0
20260502043018 52 296 0.0 2.0 0.00 0.00 0.00 58 1027.9
20260502041523 52 295 0.0 2.0 0.00 0.00 0.00 57 1028.0
20260502040026 51 291 0.0 2.0 0.00 0.00 0.00 58 1027.9